Tracking 29892 objects as of 21-Nov-2024
HD Live streaming from Space Station
objects crossing your sky now

METEOR 2-5 DEB

Track METEOR 2-5 DEB now!
10-day predictions


NORAD ID: 35254
Int'l Code: 1979-095V
Perigee: 642.1 km
Apogee: 648.3 km
Inclination: 81.2 °
Period: 97.5 minutes
Semi major axis: 7016 km
RCS: 0.0087 m2 (small)
Launch date: October 31, 1979
Source: Commonwealth of Independent States (former USSR) (CIS)
Launch site: PLESETSK MISSILE AND SPACE COMPLEX (PKMTR)

Note: This is SATELLITE DEBRIS
Your satellite tracking list
Your tracking list is empty




NASA's NSSDC Master Catalog

Two Line Element Set (TLE):
1 35254U 79095V   24319.66140903  .00047538  00000-0  66648-2 0  9996
2 35254  81.2046  75.3228 0004418 309.2008  50.8807 14.77235915589776
Source of the keplerian elements: AFSPC